When you browse on this site, cookies collect data to enhance your experience and personalize the content and advertising you see.
Visit our Privacy Policy to learn more. By continuing to use the site, you agree to this use of cookies and data.
  • In Italy
  • List of Countries
  • For 7 days
  • Water Temperature
  • Satellite Maps
  • Weather Map
  • Weather Widgets
  • user-avatar
    Login

    Hourly Weather Encamp

    Today, 11 December, Tuesday

    Time Temperature Precipitation Wind Pressure Humidity
    00:00 -1°C° 0 mm 2 mps 627 mmHg 65%
    01:00 -2°C° 0 mm 2 mps 627 mmHg 66%
    02:00 -2°C° 0 mm 2 mps 626 mmHg 66%
    03:00 0°C° 0 mm 1 mps 626 mmHg 67%
    04:00 0°C° 0 mm 1 mps 626 mmHg 66%
    05:00 0°C° 0 mm 1 mps 625 mmHg 65%
    06:00 -2°C° 0 mm 2 mps 625 mmHg 61%
    07:00 +1°C° 0 mm 1 mps 626 mmHg 58%
    08:00 +2°C° 0 mm 1 mps 626 mmHg 55%
    09:00 +4°C° 0 mm 1 mps 626 mmHg 51%
    10:00 +5°C° 0 mm 1 mps 627 mmHg 48%
    11:00 +7°C° 0 mm 1 mps 627 mmHg 45%
    12:00 +8°C° 0 mm 1 mps 627 mmHg 43%
    13:00 +7°C° 0 mm 1 mps 627 mmHg 47%
    14:00 +7°C° 0 mm 1 mps 626 mmHg 52%
    15:00 +6°C° 0 mm 1 mps 625 mmHg 56%
    16:00 +5°C° 0 mm 1 mps 625 mmHg 61%
    17:00 +3°C° 0 mm 1 mps 624 mmHg 67%
    18:00 +1°C° 0 mm 1 mps 623 mmHg 72%
    19:00 +1°C° 0 mm 1 mps 623 mmHg 70%
    20:00 +1°C° 0 mm 1 mps 623 mmHg 68%
    21:00 +1°C° 0 mm 1 mps 623 mmHg 67%
    22:00 +1°C° 0 mm 1 mps 624 mmHg 65%
    23:00 +1°C° 0 mm 1 mps 624 mmHg 63%

    Tomorrow, 12 December, Wednesday

    Time Temperature Precipitation Wind Pressure Humidity
    00:00 +1°C° 0 mm 1 mps 624 mmHg 62%
    01:00 +1°C° 0 mm 1 mps 623 mmHg 61%
    02:00 +1°C° 0 mm 1 mps 623 mmHg 61%
    03:00 -1°C° 0 mm 2 mps 623 mmHg 61%
    04:00 -1°C° 0 mm 2 mps 623 mmHg 61%
    05:00 -1°C° 0 mm 2 mps 623 mmHg 61%
    06:00 -1°C° 0 mm 2 mps 623 mmHg 61%
    07:00 +1°C° 0 mm 2 mps 624 mmHg 61%
    08:00 +3°C° 0 mm 1 mps 624 mmHg 60%
    09:00 +3°C° 0 mm 1 mps 624 mmHg 59%
    10:00 +4°C° 0.1 mm 1 mps 625 mmHg 61%
    11:00 +4°C° 0.1 mm 2 mps 625 mmHg 64%
    12:00 +4°C° 0.1 mm 2 mps 625 mmHg 66%
    13:00 +5°C° 0.1 mm 1 mps 624 mmHg 68%
    14:00 +5°C° 0.1 mm 1 mps 624 mmHg 71%
    15:00 +4°C° 0.1 mm 1 mps 623 mmHg 73%
    16:00 +3°C° 0 mm 1 mps 623 mmHg 79%
    17:00 +1°C° 0 mm 0 mps 622 mmHg 84%
    18:00 0°C° 0 mm 0 mps 622 mmHg 90%
    19:00 -1°C° 0 mm 0 mps 621 mmHg 90%
    20:00 0°C° 0 mm 1 mps 621 mmHg 90%
    21:00 0°C° 0 mm 1 mps 621 mmHg 90%
    22:00 0°C° 0 mm 1 mps 620 mmHg 89%
    23:00 0°C° 0 mm 1 mps 620 mmHg 88%

    Day after tomorrow, 13 December, Thursday

    Time Temperature Precipitation Wind Pressure Humidity
    00:00 0°C° 0 mm 1 mps 620 mmHg 87%
    01:00 0°C° 0 mm 1 mps 619 mmHg 88%
    02:00 0°C° 0 mm 1 mps 618 mmHg 89%
    03:00 0°C° 0 mm 1 mps 618 mmHg 90%
    04:00 0°C° 0 mm 1 mps 617 mmHg 89%
    05:00 0°C° 0 mm 1 mps 617 mmHg 88%
    06:00 0°C° 0 mm 1 mps 616 mmHg 87%
    07:00 0°C° 0.3 mm 1 mps 616 mmHg 86%
    08:00 +1°C° 0.3 mm 1 mps 616 mmHg 85%
    09:00 +1°C° 0.3 mm 1 mps 616 mmHg 84%
    10:00 +1°C° 0.8 mm 1 mps 616 mmHg 85%
    11:00 +1°C° 0.8 mm 1 mps 615 mmHg 87%
    12:00 +1°C° 0.8 mm 1 mps 615 mmHg 89%
    13:00 +1°C° 0.5 mm 1 mps 615 mmHg 89%
    14:00 +1°C° 0.5 mm 1 mps 614 mmHg 90%
    15:00 -1°C° 0.5 mm 2 mps 614 mmHg 90%
    16:00 -1°C° 0.4 mm 2 mps 614 mmHg 91%
    17:00 -1°C° 0.4 mm 2 mps 614 mmHg 92%
    18:00 -2°C° 0.4 mm 2 mps 614 mmHg 92%
    19:00 -2°C° 0.2 mm 3 mps 615 mmHg 91%
    20:00 -2°C° 0.2 mm 3 mps 615 mmHg 89%
    21:00 -2°C° 0.2 mm 3 mps 615 mmHg 88%
    22:00 -2°C° 0.5 mm 3 mps 616 mmHg 88%
    23:00 -2°C° 0.5 mm 3 mps 616 mmHg 88%

    14 December, Friday

    Time Temperature Precipitation Wind Pressure Humidity
    00:00 -2°C° 0.5 mm 3 mps 617 mmHg 88%
    01:00 -2°C° 0.2 mm 3 mps 617 mmHg 88%
    02:00 -2°C° 0.2 mm 3 mps 617 mmHg 88%
    03:00 -2°C° 0.2 mm 3 mps 618 mmHg 88%
    04:00 -2°C° 0.3 mm 3 mps 618 mmHg 88%
    05:00 -2°C° 0.3 mm 3 mps 618 mmHg 87%
    06:00 -2°C° 0.3 mm 3 mps 619 mmHg 87%
    07:00 -2°C° 0.1 mm 3 mps 619 mmHg 87%
    08:00 -1°C° 0.1 mm 3 mps 620 mmHg 86%
    09:00 -1°C° 0.1 mm 3 mps 621 mmHg 85%
    10:00 0°C° 0.1 mm 3 mps 621 mmHg 83%
    11:00 0°C° 0.1 mm 3 mps 621 mmHg 81%
    12:00 +1°C° 0.1 mm 3 mps 622 mmHg 79%
    13:00 +1°C° 0 mm 3 mps 622 mmHg 80%
    14:00 +1°C° 0 mm 3 mps 622 mmHg 80%
    15:00 +1°C° 0 mm 3 mps 622 mmHg 80%
    16:00 0°C° 0.1 mm 3 mps 622 mmHg 82%
    17:00 -1°C° 0.1 mm 3 mps 623 mmHg 85%
    18:00 -3°C° 0.1 mm 4 mps 623 mmHg 87%
    19:00 -2°C° 0 mm 3 mps 623 mmHg 87%
    20:00 -2°C° 0 mm 3 mps 623 mmHg 87%
    21:00 -4°C° 0 mm 3 mps 623 mmHg 87%
    22:00 -4°C° 0 mm 3 mps 624 mmHg 87%
    23:00 -4°C° 0 mm 3 mps 624 mmHg 87%

    15 December, Saturday

    Time Temperature Precipitation Wind Pressure Humidity
    00:00 -4°C° 0 mm 3 mps 624 mmHg 87%
    01:00 -5°C° 0 mm 3 mps 624 mmHg 86%
    02:00 -5°C° 0 mm 3 mps 624 mmHg 86%
    03:00 -5°C° 0 mm 3 mps 624 mmHg 86%
    04:00 -5°C° 0 mm 3 mps 624 mmHg 84%
    05:00 -5°C° 0 mm 3 mps 624 mmHg 82%
    06:00 -5°C° 0 mm 2 mps 624 mmHg 80%
    07:00 -3°C° 0 mm 2 mps 625 mmHg 77%
    08:00 -2°C° 0 mm 2 mps 625 mmHg 73%
    09:00 -1°C° 0 mm 2 mps 626 mmHg 70%
    10:00 +2°C° 0 mm 2 mps 627 mmHg 67%
    11:00 +3°C° 0 mm 2 mps 627 mmHg 65%
    12:00 +5°C° 0 mm 2 mps 628 mmHg 62%
    13:00 +5°C° 0 mm 2 mps 627 mmHg 65%
    14:00 +6°C° 0 mm 1 mps 627 mmHg 68%
    15:00 +5°C° 0 mm 1 mps 627 mmHg 71%
    16:00 +4°C° 0 mm 1 mps 627 mmHg 73%
    17:00 +3°C° 0 mm 1 mps 627 mmHg 76%
    18:00 +2°C° 0 mm 1 mps 626 mmHg 78%
    19:00 +2°C° 0 mm 1 mps 626 mmHg 78%
    20:00 +3°C° 0 mm 1 mps 627 mmHg 78%
    21:00 +3°C° 0 mm 1 mps 627 mmHg 78%
    22:00 +3°C° 0 mm 1 mps 627 mmHg 78%
    23:00 +3°C° 0 mm 1 mps 627 mmHg 78%

    16 December, Sunday

    Time Temperature Precipitation Wind Pressure Humidity
    00:00 +3°C° 0 mm 1 mps 627 mmHg 78%
    01:00 +3°C° 0 mm 1 mps 626 mmHg 78%
    02:00 +3°C° 0 mm 1 mps 626 mmHg 78%
    03:00 +3°C° 0 mm 1 mps 626 mmHg 78%
    04:00 +3°C° 0 mm 1 mps 626 mmHg 78%
    05:00 +3°C° 0 mm 1 mps 626 mmHg 78%
    06:00 +3°C° 0 mm 1 mps 626 mmHg 79%
    07:00 +4°C° 0 mm 1 mps 626 mmHg 77%
    08:00 +4°C° 0 mm 1 mps 627 mmHg 76%
    09:00 +5°C° 0 mm 1 mps 627 mmHg 75%
    10:00 +6°C° 0 mm 1 mps 628 mmHg 71%
    11:00 +6°C° 0 mm 2 mps 628 mmHg 67%
    12:00 +8°C° 0 mm 2 mps 628 mmHg 63%
    13:00 +7°C° 0 mm 2 mps 628 mmHg 64%
    14:00 +7°C° 0 mm 2 mps 627 mmHg 66%
    15:00 +6°C° 0 mm 2 mps 627 mmHg 68%
    16:00 +5°C° 0 mm 2 mps 626 mmHg 69%
    17:00 +3°C° 0 mm 2 mps 626 mmHg 69%
    18:00 +2°C° 0 mm 2 mps 625 mmHg 70%
    19:00 +2°C° 0 mm 2 mps 625 mmHg 71%
    20:00 +2°C° 0 mm 2 mps 625 mmHg 73%
    21:00 +2°C° 0 mm 2 mps 625 mmHg 74%
    22:00 +2°C° 0 mm 2 mps 625 mmHg 77%
    23:00 +3°C° 0 mm 1 mps 625 mmHg 79%
    Show more